Home   Weather   Rosario   Past weeks
Flag for Argentina

Past Weather in Rosario, Santa Fe, Argentina — Yesterday and Last 2 Weeks

Now
60 °F

Overcast.


Feels Like: 60 °F
Forecast: 67 / 54 °F
Wind: 7 mph from South

Location: Sauce Viejo Aerodrome

Current Time: Apr 22, 2019 at 9:22:35 am

Latest Report: Apr 22, 2019 at 8:00 am


Visibility: 7 mi

Pressure: 30.12 "Hg

Humidity: 76%

Dew Point: 53 °F

Location of RosarioLocation

Past Weather in Rosario — Graph

°F

Rosario Temperature Yesterday

Maximum temperature yesterday: 69 °F (at 11:00 am)
Minimum temperature yesterday: 59 °F (at 8:00 am)
Average temperature yesterday: 64 °F

High & Low Weather Summary for the Past Weeks

 TemperatureHumidityPressure
High86 °F (Apr 14, 3:00 pm)98% (Apr 17, 8:00 am)30.24 "Hg (Apr 17, 8:00 am)
Low46 °F (Apr 12, 3:00 am)36% (Apr 7, 3:00 pm)29.79 "Hg (Apr 13, 6:00 pm)
Average67 °F75%29.98 "Hg
* Reported Apr 7 8:00 am — Apr 22 8:00 am, Rosario. Weather by CustomWeather, © 2019

Note: Actual official high and low records may vary slightly from our data, if they occured in-between our weather recording intervals... More about our weather records

Advertising

Rosario Weather History for the Previous 24 Hours

Scroll right to see more
 ConditionsComfort  
Time TempWeatherWind HumidityBarometerVisibility
8:00 am
Mon, Apr 22
60 °FOvercast.7 mph76%30.12 "Hg7 mi
7:00 am60 °FOvercast.3 mph77%30.10 "Hg7 mi
6:00 am59 °FOvercast.7 mph76%30.09 "Hg7 mi
5:00 am60 °FOvercast.5 mph71%30.08 "Hg7 mi
4:00 am60 °FOvercast.6 mph71%30.07 "Hg7 mi
3:00 am60 °FOvercast.6 mph68%30.06 "Hg7 mi
2:00 am61 °FOvercast.5 mph68%30.07 "Hg7 mi
1:00 am62 °FOvercast.8 mph66%30.06 "Hg7 mi
12:00 am63 °FOvercast.8 mph67%30.06 "Hg7 mi
11:00 pm
Sun, Apr 21
63 °FOvercast.9 mph69%30.05 "Hg7 mi
10:00 pm63 °FPassing clouds.10 mph74%30.03 "Hg7 mi
9:00 pm63 °FOvercast.9 mph78%30.03 "Hg7 mi
8:00 pm64 °FOvercast.7 mph76%30.02 "Hg7 mi
7:00 pm66 °FOvercast.6 mph66%30.00 "Hg7 mi
6:00 pm67 °FOvercast.7 mph61%30.00 "Hg7 mi
5:00 pm67 °FOvercast.9 mph60%29.99 "Hg7 mi
4:00 pm69 °FOvercast.7 mph56%30.00 "Hg7 mi
3:00 pm68 °FOvercast.12 mph57%29.98 "Hg7 mi
2:00 pm69 °FOvercast.9 mph59%30.00 "Hg7 mi
1:00 pm68 °FPartly sunny.12 mph56%30.03 "Hg7 mi
12:00 pm69 °FScattered clouds.13 mph58%30.05 "Hg7 mi
11:00 am69 °FScattered clouds.12 mph58%30.05 "Hg7 mi
10:00 am65 °FPassing clouds.10 mph64%30.06 "Hg7 mi
9:00 am62 °FSunny.10 mph75%30.02 "Hg7 mi
Weather by CustomWeather, © 2019

See weather overview